Location: Dal�� Lhota
(48.7500°N, 14.0167°E)
Time: 09:35:17
(UTC+00:00)

Explorer 7 - Pass Details

Date: 07 August 2021
Orbit: 484 x 676 km, 50.3° (Epoch: 21 September)

Event Time Altitude Azimuth Distance (km) Brightness Sun altitude
Rises 00:42:21 0° 189° (S) 2,536 - -21.7°
Reaches altitude 10° 00:45:49 10° 155° (SSE) 1,658 - -21.4°
Maximum altitude 00:47:06 11° 135° (SE) 1,573 - -21.3°
Exits shadow 00:48:06 11° 119° (ESE) 1,633 9.2 -21.3°
Drops below altitude 10° 00:48:22 10° 115° (ESE) 1,667 9.3 -21.3°
Sets 00:51:52 0° 81° (E) 2,572 10.7 -21.0°
